Year,Month,Day,Hour,Minute,Value (Times are PST for temperature in C)
2013,06,28,00,00,15.30
2013,06,28,00,01,15.30
2013,06,28,00,02,15.30
2013,06,28,00,03,15.30
2013,06,28,00,04,15.20
2013,06,28,00,05,14.90
2013,06,28,00,06,14.60
2013,06,28,00,07,14.30
2013,06,28,00,08,14.10
2013,06,28,00,09,14.00
2013,06,28,00,10,13.90
2013,06,28,00,11,13.90
2013,06,28,00,12,13.90
2013,06,28,00,13,13.90
2013,06,28,00,14,13.90
2013,06,28,00,15,13.90
2013,06,28,00,16,13.90
2013,06,28,00,17,13.90
2013,06,28,00,18,13.90
2013,06,28,00,19,13.90
2013,06,28,00,20,13.80
2013,06,28,00,21,13.80
2013,06,28,00,22,13.80
2013,06,28,00,23,13.80
2013,06,28,00,24,13.80
2013,06,28,00,25,13.80
2013,06,28,00,26,13.80
2013,06,28,00,27,13.80
2013,06,28,00,28,13.80
2013,06,28,00,29,13.80
2013,06,28,00,30,13.80
2013,06,28,00,31,13.80
2013,06,28,00,32,13.80
2013,06,28,00,33,13.80
2013,06,28,00,34,13.90
2013,06,28,00,35,13.90
2013,06,28,00,36,13.90
2013,06,28,00,37,14.00
2013,06,28,00,38,14.00
2013,06,28,00,39,14.00
2013,06,28,00,40,14.10
2013,06,28,00,41,14.10
2013,06,28,00,42,14.20
2013,06,28,00,43,14.30
2013,06,28,00,44,14.40
2013,06,28,00,45,14.50
2013,06,28,00,46,14.50
2013,06,28,00,47,14.60
2013,06,28,00,48,14.60
2013,06,28,00,49,14.70
2013,06,28,00,50,14.70
2013,06,28,00,51,14.70
2013,06,28,00,52,14.80
2013,06,28,00,53,14.80
2013,06,28,00,54,14.80
2013,06,28,00,55,14.90
2013,06,28,00,56,14.90
2013,06,28,00,57,15.00
2013,06,28,00,58,15.10
2013,06,28,00,59,15.10
2013,06,28,01,00,15.20
2013,06,28,01,01,15.20
2013,06,28,01,02,15.20
2013,06,28,01,03,15.20
2013,06,28,01,04,15.20
2013,06,28,01,05,15.20
2013,06,28,01,06,15.20
2013,06,28,01,07,15.20
2013,06,28,01,08,15.20
2013,06,28,01,09,15.20
2013,06,28,01,10,15.20
2013,06,28,01,11,15.30
2013,06,28,01,12,15.30
2013,06,28,01,13,15.30
2013,06,28,01,14,15.20
2013,06,28,01,15,15.20
2013,06,28,01,16,15.20
2013,06,28,01,17,15.10
2013,06,28,01,18,15.10
2013,06,28,01,19,15.10
2013,06,28,01,20,15.00
2013,06,28,01,21,15.00
2013,06,28,01,22,15.00
2013,06,28,01,23,14.90
2013,06,28,01,24,14.80
2013,06,28,01,25,14.70
2013,06,28,01,26,14.50
2013,06,28,01,27,14.30
2013,06,28,01,28,14.20
2013,06,28,01,29,14.10
2013,06,28,01,30,14.10
2013,06,28,01,31,14.00
2013,06,28,01,32,14.00
2013,06,28,01,33,13.90
2013,06,28,01,34,13.80
2013,06,28,01,35,13.70
2013,06,28,01,36,13.70
2013,06,28,01,37,13.60
2013,06,28,01,38,13.60
2013,06,28,01,39,13.50
2013,06,28,01,40,13.50
2013,06,28,01,41,13.50
2013,06,28,01,42,13.50
2013,06,28,01,43,13.40
2013,06,28,01,44,13.30
2013,06,28,01,45,13.30
2013,06,28,01,46,13.20
2013,06,28,01,47,13.20
2013,06,28,01,48,13.10
2013,06,28,01,49,13.10
2013,06,28,01,50,13.00
2013,06,28,01,51,13.00
2013,06,28,01,52,13.00
2013,06,28,01,53,13.00
2013,06,28,01,54,12.90
2013,06,28,01,55,12.90
2013,06,28,01,56,12.90
2013,06,28,01,57,12.90
2013,06,28,01,58,12.90
2013,06,28,01,59,12.80
2013,06,28,02,00,12.80
2013,06,28,02,01,12.80
2013,06,28,02,02,12.80
2013,06,28,02,03,12.80
2013,06,28,02,04,12.80
2013,06,28,02,05,12.80
2013,06,28,02,06,12.80
2013,06,28,02,07,12.80
2013,06,28,02,08,12.80
2013,06,28,02,09,12.80
2013,06,28,02,10,12.80
2013,06,28,02,11,12.80
2013,06,28,02,12,12.80
2013,06,28,02,13,12.80
2013,06,28,02,14,12.80
2013,06,28,02,15,12.80
2013,06,28,02,16,12.80
2013,06,28,02,17,12.80
2013,06,28,02,18,12.90
2013,06,28,02,19,12.90
2013,06,28,02,20,12.90
2013,06,28,02,21,13.00
2013,06,28,02,22,13.00
2013,06,28,02,23,13.00
2013,06,28,02,24,13.00
2013,06,28,02,25,13.00
2013,06,28,02,26,13.00
2013,06,28,02,27,13.00
2013,06,28,02,28,13.00
2013,06,28,02,29,13.00
2013,06,28,02,30,13.00
2013,06,28,02,31,12.90
2013,06,28,02,32,12.90
2013,06,28,02,33,12.90
2013,06,28,02,34,12.90
2013,06,28,02,35,12.90
2013,06,28,02,36,12.90
2013,06,28,02,37,12.90
2013,06,28,02,38,12.90
2013,06,28,02,39,12.90
2013,06,28,02,40,13.00
2013,06,28,02,41,13.00
2013,06,28,02,42,13.10
2013,06,28,02,43,13.10
2013,06,28,02,44,13.10
2013,06,28,02,45,13.20
2013,06,28,02,46,13.20
2013,06,28,02,47,13.30
2013,06,28,02,48,13.30
2013,06,28,02,49,13.40
2013,06,28,02,50,13.50
2013,06,28,02,51,13.60
2013,06,28,02,52,13.70
2013,06,28,02,53,13.70
2013,06,28,02,54,13.80
2013,06,28,02,55,13.80
2013,06,28,02,56,13.80
2013,06,28,02,57,13.80
2013,06,28,02,58,13.80
2013,06,28,02,59,13.90
2013,06,28,03,00,13.90
2013,06,28,03,01,13.90
2013,06,28,03,02,13.90
2013,06,28,03,03,13.90
2013,06,28,03,04,13.90
2013,06,28,03,05,13.90
2013,06,28,03,06,14.00
2013,06,28,03,07,14.00
2013,06,28,03,08,14.00
2013,06,28,03,09,14.00
2013,06,28,03,10,14.00
2013,06,28,03,11,14.10
2013,06,28,03,12,14.10
2013,06,28,03,13,14.10
2013,06,28,03,14,14.10
2013,06,28,03,15,14.20
2013,06,28,03,16,14.20
2013,06,28,03,17,14.20
2013,06,28,03,18,14.20
2013,06,28,03,19,14.20
2013,06,28,03,20,14.20
2013,06,28,03,21,14.20
2013,06,28,03,22,14.20
2013,06,28,03,23,14.20
2013,06,28,03,24,14.20
2013,06,28,03,25,14.20
2013,06,28,03,26,14.20
2013,06,28,03,27,14.20
2013,06,28,03,28,14.20
2013,06,28,03,29,14.20
2013,06,28,03,30,14.20
2013,06,28,03,31,14.20
2013,06,28,03,32,14.20
2013,06,28,03,33,14.20
2013,06,28,03,34,14.20
2013,06,28,03,35,14.20
2013,06,28,03,36,14.20
2013,06,28,03,37,14.20
2013,06,28,03,38,14.20
2013,06,28,03,39,14.20
2013,06,28,03,40,14.20
2013,06,28,03,41,14.10
2013,06,28,03,42,14.10
2013,06,28,03,43,14.10
2013,06,28,03,44,14.10
2013,06,28,03,45,14.10
2013,06,28,03,46,14.10
2013,06,28,03,47,14.10
2013,06,28,03,48,14.10
2013,06,28,03,49,14.10
2013,06,28,03,50,14.00
2013,06,28,03,51,14.00
2013,06,28,03,52,14.00
2013,06,28,03,53,14.00
2013,06,28,03,54,14.00
2013,06,28,03,55,14.00
2013,06,28,03,56,14.00
2013,06,28,03,57,14.00
2013,06,28,03,58,14.00
2013,06,28,03,59,14.00
2013,06,28,04,00,14.00
2013,06,28,04,01,14.00
2013,06,28,04,02,14.00
2013,06,28,04,03,14.00
2013,06,28,04,04,14.00
2013,06,28,04,05,14.00
2013,06,28,04,06,14.00
2013,06,28,04,07,14.00
2013,06,28,04,08,14.00
2013,06,28,04,09,14.10
2013,06,28,04,10,14.10
2013,06,28,04,11,14.10
2013,06,28,04,12,14.20
2013,06,28,04,13,14.20
2013,06,28,04,14,14.20
2013,06,28,04,15,14.20
2013,06,28,04,16,14.20
2013,06,28,04,17,14.20
2013,06,28,04,18,14.30
2013,06,28,04,19,14.40
2013,06,28,04,20,14.40
2013,06,28,04,21,14.40
2013,06,28,04,22,14.50
2013,06,28,04,23,14.50
2013,06,28,04,24,14.60
2013,06,28,04,25,14.60
2013,06,28,04,26,14.60
2013,06,28,04,27,14.60
2013,06,28,04,28,14.70
2013,06,28,04,29,14.70
2013,06,28,04,30,14.70
2013,06,28,04,31,14.70
2013,06,28,04,32,14.70
2013,06,28,04,33,14.70
2013,06,28,04,34,14.70
2013,06,28,04,35,14.70
2013,06,28,04,36,14.60
2013,06,28,04,37,14.60
2013,06,28,04,38,14.60
2013,06,28,04,39,14.60
2013,06,28,04,40,14.60
2013,06,28,04,41,14.70
2013,06,28,04,42,14.60
2013,06,28,04,43,14.60
2013,06,28,04,44,14.60
2013,06,28,04,45,14.60
2013,06,28,04,46,14.60
2013,06,28,04,47,14.60
2013,06,28,04,48,14.60
2013,06,28,04,49,14.60
2013,06,28,04,50,14.60
2013,06,28,04,51,14.60
2013,06,28,04,52,14.60
2013,06,28,04,53,14.70
2013,06,28,04,54,14.70
2013,06,28,04,55,14.70
2013,06,28,04,56,14.70
2013,06,28,04,57,14.60
2013,06,28,04,58,14.60
2013,06,28,04,59,14.60
2013,06,28,05,00,14.60
2013,06,28,05,01,14.60
2013,06,28,05,02,14.60
2013,06,28,05,03,14.60
2013,06,28,05,04,14.60
2013,06,28,05,05,14.50
2013,06,28,05,06,14.60
2013,06,28,05,07,14.60
2013,06,28,05,08,14.70
2013,06,28,05,09,14.80
2013,06,28,05,10,14.80
2013,06,28,05,11,14.80
2013,06,28,05,12,14.80
2013,06,28,05,13,14.80
2013,06,28,05,14,14.80
2013,06,28,05,15,14.80
2013,06,28,05,16,14.90
2013,06,28,05,17,14.90
2013,06,28,05,18,14.90
2013,06,28,05,19,14.90
2013,06,28,05,20,14.90
2013,06,28,05,21,14.90
2013,06,28,05,22,15.00
2013,06,28,05,23,15.00
2013,06,28,05,24,15.00
2013,06,28,05,25,15.00
2013,06,28,05,26,15.00
2013,06,28,05,27,15.00
2013,06,28,05,28,15.00
2013,06,28,05,29,15.10
2013,06,28,05,30,15.10
2013,06,28,05,31,15.20
2013,06,28,05,32,15.20
2013,06,28,05,33,15.30
2013,06,28,05,34,15.30
2013,06,28,05,35,15.30
2013,06,28,05,36,15.30
2013,06,28,05,37,15.30
2013,06,28,05,38,15.40
2013,06,28,05,39,15.40
2013,06,28,05,40,15.40
2013,06,28,05,41,15.40
2013,06,28,05,42,15.50
2013,06,28,05,43,15.50
2013,06,28,05,44,15.50
2013,06,28,05,45,15.50
2013,06,28,05,46,15.50
2013,06,28,05,47,15.50
2013,06,28,05,48,15.50
2013,06,28,05,49,15.60
2013,06,28,05,50,15.60
2013,06,28,05,51,15.60
2013,06,28,05,52,15.60
2013,06,28,05,53,15.60
2013,06,28,05,54,15.60
2013,06,28,05,55,15.60
2013,06,28,05,56,15.60
2013,06,28,05,57,15.60
2013,06,28,05,58,15.60
2013,06,28,05,59,15.60
2013,06,28,06,00,15.60
2013,06,28,06,01,15.70
2013,06,28,06,02,15.70
2013,06,28,06,03,15.70
2013,06,28,06,04,15.60
2013,06,28,06,05,15.60
2013,06,28,06,06,15.60
2013,06,28,06,07,15.60
2013,06,28,06,08,15.70
2013,06,28,06,09,15.70
2013,06,28,06,10,15.70
2013,06,28,06,11,15.60
2013,06,28,06,12,15.60
2013,06,28,06,13,15.60
2013,06,28,06,14,15.60
2013,06,28,06,15,15.60
2013,06,28,06,16,15.60
2013,06,28,06,17,15.60
2013,06,28,06,18,15.60
2013,06,28,06,19,15.60
2013,06,28,06,20,15.60
2013,06,28,06,21,15.60
2013,06,28,06,22,15.60
2013,06,28,06,23,15.60
2013,06,28,06,24,15.60
2013,06,28,06,25,15.60
2013,06,28,06,26,15.70
2013,06,28,06,27,15.70
2013,06,28,06,28,15.70
2013,06,28,06,29,15.70
2013,06,28,06,30,15.70
2013,06,28,06,31,15.70
2013,06,28,06,32,15.70
2013,06,28,06,33,15.70
2013,06,28,06,34,15.70
2013,06,28,06,35,15.70
2013,06,28,06,36,15.70
2013,06,28,06,37,15.80
2013,06,28,06,38,15.80
2013,06,28,06,39,15.80
2013,06,28,06,40,15.80
2013,06,28,06,41,15.80
2013,06,28,06,42,15.80
2013,06,28,06,43,15.80
2013,06,28,06,44,15.80
2013,06,28,06,45,15.80
2013,06,28,06,46,15.80
2013,06,28,06,47,15.80
2013,06,28,06,48,15.80
2013,06,28,06,49,15.80
2013,06,28,06,50,15.80
2013,06,28,06,51,15.90
2013,06,28,06,52,15.90
2013,06,28,06,53,15.90
2013,06,28,06,54,16.00
2013,06,28,06,55,15.90
2013,06,28,06,56,16.00
2013,06,28,06,57,16.10
2013,06,28,06,58,16.10
2013,06,28,06,59,16.10
2013,06,28,07,00,16.10
2013,06,28,07,01,16.10
2013,06,28,07,02,16.10
2013,06,28,07,03,16.10
2013,06,28,07,04,16.10
2013,06,28,07,05,16.20
2013,06,28,07,06,16.20
2013,06,28,07,07,16.20
2013,06,28,07,08,16.20
2013,06,28,07,09,16.20
2013,06,28,07,10,16.20
2013,06,28,07,11,16.20
2013,06,28,07,12,16.20
2013,06,28,07,13,16.30
2013,06,28,07,14,16.30
2013,06,28,07,15,16.30
2013,06,28,07,16,16.30
2013,06,28,07,17,16.30
2013,06,28,07,18,16.30
2013,06,28,07,19,16.30
2013,06,28,07,20,16.30
2013,06,28,07,21,16.30
2013,06,28,07,22,16.30
2013,06,28,07,23,16.30
2013,06,28,07,24,16.30
2013,06,28,07,25,16.30
2013,06,28,07,26,16.30
2013,06,28,07,27,16.40
2013,06,28,07,28,16.40
2013,06,28,07,29,16.40
2013,06,28,07,30,16.40
2013,06,28,07,31,16.40
2013,06,28,07,32,16.40
2013,06,28,07,33,16.50
2013,06,28,07,34,16.60
2013,06,28,07,35,16.60
2013,06,28,07,36,16.60
2013,06,28,07,37,16.60
2013,06,28,07,38,16.60
2013,06,28,07,39,16.60
2013,06,28,07,40,16.60
2013,06,28,07,41,16.60
2013,06,28,07,42,16.60
2013,06,28,07,43,16.60
2013,06,28,07,44,16.70
2013,06,28,07,45,16.70
2013,06,28,07,46,16.70
2013,06,28,07,47,16.70
2013,06,28,07,48,16.70
2013,06,28,07,49,16.70
2013,06,28,07,50,16.70
2013,06,28,07,51,16.70
2013,06,28,07,52,16.70
2013,06,28,07,53,16.70
2013,06,28,07,54,16.70
2013,06,28,07,55,16.70
2013,06,28,07,56,16.70
2013,06,28,07,57,16.70
2013,06,28,07,58,16.70
2013,06,28,07,59,16.80
2013,06,28,08,00,16.80
2013,06,28,08,01,16.90
2013,06,28,08,02,16.90
2013,06,28,08,03,16.90
2013,06,28,08,04,16.90
2013,06,28,08,05,16.90
2013,06,28,08,06,16.90
2013,06,28,08,07,16.90
2013,06,28,08,08,16.90
2013,06,28,08,09,16.90
2013,06,28,08,10,16.90
2013,06,28,08,11,17.00
2013,06,28,08,12,17.00
2013,06,28,08,13,17.00
2013,06,28,08,14,17.00
2013,06,28,08,15,17.00
2013,06,28,08,16,17.00
2013,06,28,08,17,17.00
2013,06,28,08,18,17.10
2013,06,28,08,19,17.10
2013,06,28,08,20,17.00
2013,06,28,08,21,17.10
2013,06,28,08,22,17.00
2013,06,28,08,23,17.00
2013,06,28,08,24,17.10
2013,06,28,08,25,17.00
2013,06,28,08,26,17.00
2013,06,28,08,27,17.00
2013,06,28,08,28,17.10
2013,06,28,08,29,17.10
2013,06,28,08,30,17.10
2013,06,28,08,31,17.20
2013,06,28,08,32,17.10
2013,06,28,08,33,17.10
2013,06,28,08,34,17.10
2013,06,28,08,35,17.10
2013,06,28,08,36,17.20
2013,06,28,08,37,17.20
2013,06,28,08,38,17.20
2013,06,28,08,39,17.10
2013,06,28,08,40,17.10
2013,06,28,08,41,17.20
2013,06,28,08,42,17.20
2013,06,28,08,43,17.30
2013,06,28,08,44,17.30
2013,06,28,08,45,17.30
2013,06,28,08,46,17.30
2013,06,28,08,47,17.30
2013,06,28,08,48,17.40
2013,06,28,08,49,17.40
2013,06,28,08,50,17.40
2013,06,28,08,51,17.40
2013,06,28,08,52,17.40
2013,06,28,08,53,17.40
2013,06,28,08,54,17.40
2013,06,28,08,55,17.40
2013,06,28,08,56,17.40
2013,06,28,08,57,17.40
2013,06,28,08,58,17.50
2013,06,28,08,59,17.50
2013,06,28,09,00,17.40
2013,06,28,09,01,17.50
2013,06,28,09,02,17.40
2013,06,28,09,03,17.40
2013,06,28,09,04,17.50
2013,06,28,09,05,17.50
2013,06,28,09,06,17.60
2013,06,28,09,07,17.70
2013,06,28,09,08,17.70
2013,06,28,09,09,17.80
2013,06,28,09,10,17.90
2013,06,28,09,11,17.90
2013,06,28,09,12,17.90
2013,06,28,09,13,18.00
2013,06,28,09,14,18.10
2013,06,28,09,15,18.20
2013,06,28,09,16,18.20
2013,06,28,09,17,18.20
2013,06,28,09,18,18.30
2013,06,28,09,19,18.30
2013,06,28,09,20,18.30
2013,06,28,09,21,18.30
2013,06,28,09,22,18.30
2013,06,28,09,23,18.30
2013,06,28,09,24,18.40
2013,06,28,09,25,18.40
2013,06,28,09,26,18.40
2013,06,28,09,27,18.30
2013,06,28,09,28,18.30
2013,06,28,09,29,18.30
2013,06,28,09,30,18.30
2013,06,28,09,31,18.30
2013,06,28,09,32,18.40
2013,06,28,09,33,18.30
2013,06,28,09,34,18.30
2013,06,28,09,35,18.30
2013,06,28,09,36,18.30
2013,06,28,09,37,18.30
2013,06,28,09,38,18.30
2013,06,28,09,39,18.30
2013,06,28,09,40,18.40
2013,06,28,09,41,18.40
2013,06,28,09,42,18.40
2013,06,28,09,43,18.40
2013,06,28,09,44,18.30
2013,06,28,09,45,18.30
2013,06,28,09,46,18.30
2013,06,28,09,47,18.40
2013,06,28,09,48,18.40
2013,06,28,09,49,18.30
2013,06,28,09,50,18.40
2013,06,28,09,51,18.50
2013,06,28,09,52,18.50
2013,06,28,09,53,18.60
2013,06,28,09,54,18.60
2013,06,28,09,55,18.70
2013,06,28,09,56,18.80
2013,06,28,09,57,18.80
2013,06,28,09,58,18.80
2013,06,28,09,59,18.90
2013,06,28,10,00,18.90
2013,06,28,10,01,18.90
2013,06,28,10,02,19.00
2013,06,28,10,03,19.10
2013,06,28,10,04,19.20
2013,06,28,10,05,19.20
2013,06,28,10,06,19.20
2013,06,28,10,07,19.20
2013,06,28,10,08,19.20
2013,06,28,10,09,19.20
2013,06,28,10,10,19.20
2013,06,28,10,11,19.20
2013,06,28,10,12,19.20
2013,06,28,10,13,19.20
2013,06,28,10,14,19.20
2013,06,28,10,15,19.20
2013,06,28,10,16,19.30
2013,06,28,10,17,19.30
2013,06,28,10,18,19.40
2013,06,28,10,19,19.40
2013,06,28,10,20,19.40
2013,06,28,10,21,19.40
2013,06,28,10,22,19.50
2013,06,28,10,23,19.50
2013,06,28,10,24,19.50
2013,06,28,10,25,19.50
2013,06,28,10,26,19.50
2013,06,28,10,27,19.50
2013,06,28,10,28,19.50
2013,06,28,10,29,19.50
2013,06,28,10,30,19.40
2013,06,28,10,31,19.40
2013,06,28,10,32,19.40
2013,06,28,10,33,19.30
2013,06,28,10,34,19.30
2013,06,28,10,35,19.30
2013,06,28,10,36,19.30
2013,06,28,10,37,19.40
2013,06,28,10,38,19.40
2013,06,28,10,39,19.40
2013,06,28,10,40,19.40
2013,06,28,10,41,19.40
2013,06,28,10,42,19.40
2013,06,28,10,43,19.40
2013,06,28,10,44,19.30
2013,06,28,10,45,19.30
2013,06,28,10,46,19.40
2013,06,28,10,47,19.40
2013,06,28,10,48,19.40
2013,06,28,10,49,19.40
2013,06,28,10,50,19.50
2013,06,28,10,51,19.50
2013,06,28,10,52,19.50
2013,06,28,10,53,19.50
2013,06,28,10,54,19.60
2013,06,28,10,55,19.60
2013,06,28,10,56,19.60
2013,06,28,10,57,19.70
2013,06,28,10,58,19.70
2013,06,28,10,59,19.80
2013,06,28,11,00,19.80
2013,06,28,11,01,19.90
2013,06,28,11,02,19.90
2013,06,28,11,03,19.90
2013,06,28,11,04,19.90
2013,06,28,11,05,19.90
2013,06,28,11,06,19.90
2013,06,28,11,07,19.90
2013,06,28,11,08,19.90
2013,06,28,11,09,19.90
2013,06,28,11,10,19.90
2013,06,28,11,11,19.90
2013,06,28,11,12,19.90
2013,06,28,11,13,19.90
2013,06,28,11,14,19.90
2013,06,28,11,15,19.90
2013,06,28,11,16,19.80
2013,06,28,11,17,19.80
2013,06,28,11,18,19.70
2013,06,28,11,19,19.70
2013,06,28,11,20,19.70
2013,06,28,11,21,19.70
2013,06,28,11,22,19.70
2013,06,28,11,23,19.70
2013,06,28,11,24,19.80
2013,06,28,11,25,19.80
2013,06,28,11,26,19.80
2013,06,28,11,27,19.80
2013,06,28,11,28,19.70
2013,06,28,11,29,19.70
2013,06,28,11,30,19.70
2013,06,28,11,31,19.70
2013,06,28,11,32,19.70
2013,06,28,11,33,19.70
2013,06,28,11,34,19.80
2013,06,28,11,35,19.80
2013,06,28,11,36,19.90
2013,06,28,11,37,19.90
2013,06,28,11,38,19.90
2013,06,28,11,39,19.90
2013,06,28,11,40,19.90
2013,06,28,11,41,19.90
2013,06,28,11,42,19.80
2013,06,28,11,43,19.80
2013,06,28,11,44,19.80
2013,06,28,11,45,19.80
2013,06,28,11,46,19.80
2013,06,28,11,47,19.70
2013,06,28,11,48,19.70
2013,06,28,11,49,19.70
2013,06,28,11,50,19.70
2013,06,28,11,51,19.80
2013,06,28,11,52,19.80
2013,06,28,11,53,19.80
2013,06,28,11,54,19.90
2013,06,28,11,55,19.90
2013,06,28,11,56,19.90
2013,06,28,11,57,19.90
2013,06,28,11,58,19.90
2013,06,28,11,59,19.90
2013,06,28,12,00,19.90
2013,06,28,12,01,20.00
2013,06,28,12,02,20.10
2013,06,28,12,03,20.10
2013,06,28,12,04,20.10
2013,06,28,12,05,20.10
2013,06,28,12,06,20.10
2013,06,28,12,07,20.10
2013,06,28,12,08,20.10
2013,06,28,12,09,20.10
2013,06,28,12,10,20.10
2013,06,28,12,11,20.10
2013,06,28,12,12,20.10
2013,06,28,12,13,20.10
2013,06,28,12,14,20.10
2013,06,28,12,15,20.20
2013,06,28,12,16,20.20
2013,06,28,12,17,20.20
2013,06,28,12,18,20.20
2013,06,28,12,19,20.20
2013,06,28,12,20,20.20
2013,06,28,12,21,20.20
2013,06,28,12,22,20.20
2013,06,28,12,23,20.20
2013,06,28,12,24,20.20
2013,06,28,12,25,20.20
2013,06,28,12,26,20.10
2013,06,28,12,27,20.10
2013,06,28,12,28,20.20
2013,06,28,12,29,20.20
2013,06,28,12,30,20.20
2013,06,28,12,31,20.20
2013,06,28,12,32,20.20
2013,06,28,12,33,20.20
2013,06,28,12,34,20.20
2013,06,28,12,35,20.20
2013,06,28,12,36,20.20
2013,06,28,12,37,20.10
2013,06,28,12,38,20.10
2013,06,28,12,39,20.10
2013,06,28,12,40,20.10
2013,06,28,12,41,20.10
2013,06,28,12,42,20.20
2013,06,28,12,43,20.20
2013,06,28,12,44,20.20
2013,06,28,12,45,20.20
2013,06,28,12,46,20.20
2013,06,28,12,47,20.20
2013,06,28,12,48,20.30
2013,06,28,12,49,20.30
2013,06,28,12,50,20.30
2013,06,28,12,51,20.30
2013,06,28,12,52,20.20
2013,06,28,12,53,20.20
2013,06,28,12,54,20.30
2013,06,28,12,55,20.30
2013,06,28,12,56,20.30
2013,06,28,12,57,20.30
2013,06,28,12,58,20.30
2013,06,28,12,59,20.30
2013,06,28,13,00,20.30
2013,06,28,13,01,20.30
2013,06,28,13,02,20.30
2013,06,28,13,03,20.30
2013,06,28,13,04,20.30
2013,06,28,13,05,20.40
2013,06,28,13,06,20.40
2013,06,28,13,07,20.40
2013,06,28,13,08,20.50
2013,06,28,13,09,20.50
2013,06,28,13,10,20.60
2013,06,28,13,11,20.60
2013,06,28,13,12,20.60
2013,06,28,13,13,20.60
2013,06,28,13,14,20.60
2013,06,28,13,15,20.60
2013,06,28,13,16,20.70
2013,06,28,13,17,20.70
2013,06,28,13,18,20.70
2013,06,28,13,19,20.70
2013,06,28,13,20,20.80
2013,06,28,13,21,20.80
2013,06,28,13,22,20.70
2013,06,28,13,23,20.70
2013,06,28,13,24,20.70
2013,06,28,13,25,20.70
2013,06,28,13,26,20.60
2013,06,28,13,27,20.60
2013,06,28,13,28,20.60
2013,06,28,13,29,20.60
2013,06,28,13,30,20.60
2013,06,28,13,31,20.60
2013,06,28,13,32,20.60
2013,06,28,13,33,20.50
2013,06,28,13,34,20.50
2013,06,28,13,35,20.50
2013,06,28,13,36,20.50
2013,06,28,13,37,20.50
2013,06,28,13,38,20.50
2013,06,28,13,39,20.50
2013,06,28,13,40,20.50
2013,06,28,13,41,20.50
2013,06,28,13,42,20.50
2013,06,28,13,43,20.60
2013,06,28,13,44,20.60
2013,06,28,13,45,20.70
2013,06,28,13,46,20.70
2013,06,28,13,47,20.80
2013,06,28,13,48,20.80
2013,06,28,13,49,20.90
2013,06,28,13,50,20.90
2013,06,28,13,51,20.90
2013,06,28,13,52,21.00
2013,06,28,13,53,21.00
2013,06,28,13,54,21.00
2013,06,28,13,55,21.10
2013,06,28,13,56,21.10
2013,06,28,13,57,21.20
2013,06,28,13,58,21.30
2013,06,28,13,59,21.40
2013,06,28,14,00,21.50
2013,06,28,14,01,21.60
2013,06,28,14,02,21.60
2013,06,28,14,03,21.60
2013,06,28,14,04,21.70
2013,06,28,14,05,21.80
2013,06,28,14,06,21.80
2013,06,28,14,07,21.90
2013,06,28,14,08,21.90
2013,06,28,14,09,21.90
2013,06,28,14,10,21.90
2013,06,28,14,11,21.90
2013,06,28,14,12,21.90
2013,06,28,14,13,21.90
2013,06,28,14,14,22.00
2013,06,28,14,15,22.10
2013,06,28,14,16,22.10
2013,06,28,14,17,22.20
2013,06,28,14,18,22.20
2013,06,28,14,19,22.20
2013,06,28,14,20,22.20
2013,06,28,14,21,22.30
2013,06,28,14,22,22.40
2013,06,28,14,23,22.40
2013,06,28,14,24,22.50
2013,06,28,14,25,22.60
2013,06,28,14,26,22.70
2013,06,28,14,27,22.80
2013,06,28,14,28,22.90
2013,06,28,14,29,22.90
2013,06,28,14,30,22.90
2013,06,28,14,31,22.90
2013,06,28,14,32,22.90
2013,06,28,14,33,22.90
2013,06,28,14,34,22.90
2013,06,28,14,35,22.90
2013,06,28,14,36,22.90
2013,06,28,14,37,22.90
2013,06,28,14,38,22.90
2013,06,28,14,39,22.90
2013,06,28,14,40,22.90
2013,06,28,14,41,23.10
2013,06,28,14,42,23.10
2013,06,28,14,43,23.10
2013,06,28,14,44,23.20
2013,06,28,14,45,23.30
2013,06,28,14,46,23.30
2013,06,28,14,47,23.40
2013,06,28,14,48,23.50
2013,06,28,14,49,23.60
2013,06,28,14,50,23.70
2013,06,28,14,51,23.70
2013,06,28,14,52,23.70
2013,06,28,14,53,23.70
2013,06,28,14,54,23.60
2013,06,28,14,55,23.50
2013,06,28,14,56,23.40
2013,06,28,14,57,23.30
2013,06,28,14,58,23.20
2013,06,28,14,59,23.10
2013,06,28,15,00,23.10
2013,06,28,15,01,23.00
2013,06,28,15,02,22.90
2013,06,28,15,03,22.90
2013,06,28,15,04,22.90
2013,06,28,15,05,22.90
2013,06,28,15,06,22.90
2013,06,28,15,07,22.90
2013,06,28,15,08,23.10
2013,06,28,15,09,23.10
2013,06,28,15,10,23.10
2013,06,28,15,11,23.20
2013,06,28,15,12,23.30
2013,06,28,15,13,23.30
2013,06,28,15,14,23.30
2013,06,28,15,15,23.40
2013,06,28,15,16,23.50
2013,06,28,15,17,23.60
2013,06,28,15,18,23.70
2013,06,28,15,19,23.70
2013,06,28,15,20,23.70
2013,06,28,15,21,23.70
2013,06,28,15,22,23.80
2013,06,28,15,23,23.80
2013,06,28,15,24,23.90
2013,06,28,15,25,23.90
2013,06,28,15,26,23.90
2013,06,28,15,27,24.00
2013,06,28,15,28,24.10
2013,06,28,15,29,24.10
2013,06,28,15,30,24.20
2013,06,28,15,31,24.30
2013,06,28,15,32,24.30
2013,06,28,15,33,24.40
2013,06,28,15,34,24.50
2013,06,28,15,35,24.60
2013,06,28,15,36,24.60
2013,06,28,15,37,24.70
2013,06,28,15,38,24.70
2013,06,28,15,39,24.60
2013,06,28,15,40,24.50
2013,06,28,15,41,24.50
2013,06,28,15,42,24.60
2013,06,28,15,43,24.60
2013,06,28,15,44,24.70
2013,06,28,15,45,24.80
2013,06,28,15,46,24.90
2013,06,28,15,47,24.90
2013,06,28,15,48,24.80
2013,06,28,15,49,24.70
2013,06,28,15,50,24.80
2013,06,28,15,51,24.80
2013,06,28,15,52,24.90
2013,06,28,15,53,24.90
2013,06,28,15,54,25.00
2013,06,28,15,55,25.00
2013,06,28,15,56,25.00
2013,06,28,15,57,25.10
2013,06,28,15,58,25.20
2013,06,28,15,59,25.30
2013,06,28,16,00,25.40
2013,06,28,16,01,25.40
2013,06,28,16,02,25.50
2013,06,28,16,03,25.50
2013,06,28,16,04,25.60
2013,06,28,16,05,25.60
2013,06,28,16,06,25.60
2013,06,28,16,07,25.60
2013,06,28,16,08,25.50
2013,06,28,16,09,25.40
2013,06,28,16,10,25.40
2013,06,28,16,11,25.30
2013,06,28,16,12,25.10
2013,06,28,16,13,24.90
2013,06,28,16,14,24.90
2013,06,28,16,15,24.80
2013,06,28,16,16,24.70
2013,06,28,16,17,24.70
2013,06,28,16,18,24.70
2013,06,28,16,19,24.70
2013,06,28,16,20,24.70
2013,06,28,16,21,24.70
2013,06,28,16,22,24.80
2013,06,28,16,23,24.90
2013,06,28,16,24,25.00
2013,06,28,16,25,25.00
2013,06,28,16,26,25.00
2013,06,28,16,27,24.90
2013,06,28,16,28,24.80
2013,06,28,16,29,24.70
2013,06,28,16,30,24.60
2013,06,28,16,31,24.60
2013,06,28,16,32,24.80
2013,06,28,16,33,24.80
2013,06,28,16,34,24.90
2013,06,28,16,35,24.90
2013,06,28,16,36,24.90
2013,06,28,16,37,24.90
2013,06,28,16,38,24.90
2013,06,28,16,39,24.90
2013,06,28,16,40,25.00
2013,06,28,16,41,25.10
2013,06,28,16,42,25.10
2013,06,28,16,43,25.20
2013,06,28,16,44,25.20
2013,06,28,16,45,25.20
2013,06,28,16,46,25.10
2013,06,28,16,47,25.10
2013,06,28,16,48,25.10
2013,06,28,16,49,25.00
2013,06,28,16,50,25.00
2013,06,28,16,51,25.00
2013,06,28,16,52,25.00
2013,06,28,16,53,24.90
2013,06,28,16,54,24.80
2013,06,28,16,55,24.70
2013,06,28,16,56,24.70
2013,06,28,16,57,24.60
2013,06,28,16,58,24.60
2013,06,28,16,59,24.60
2013,06,28,17,00,24.50
2013,06,28,17,01,24.50
2013,06,28,17,02,24.50
2013,06,28,17,03,24.50
2013,06,28,17,04,24.50
2013,06,28,17,05,24.50
2013,06,28,17,06,24.50
2013,06,28,17,07,24.40
2013,06,28,17,08,24.40
2013,06,28,17,09,24.30
2013,06,28,17,10,24.20
2013,06,28,17,11,24.10
2013,06,28,17,12,24.00
2013,06,28,17,13,23.90
2013,06,28,17,14,23.90
2013,06,28,17,15,23.80
2013,06,28,17,16,23.80
2013,06,28,17,17,23.70
2013,06,28,17,18,23.70
2013,06,28,17,19,23.70